Regional Weather Roundup
Issued by NWS Wakefield, VA

Home | Current Version | Previous Version | Graphics & Text | Print | Product List | Glossary On
Versions: 1 2 3 4 5 6 7 8 9 10 11 12 13 14 15 16 17 18 19 20 21 22 23 24 25 26 27 28 29 30 31 32 33 34 35 36 37 38 39 40 41 42 43 44 45 46 47 48 49 50
000
ASUS41 KAKQ 221715
RWRAKQ

REGIONAL WEATHER ROUNDUP
NATIONAL WEATHER SERVICE WAKEFIELD VA
100 PM EDT FRI JUL 22 2016

Note: "fair" indicates few or no clouds below 12,000 feet with no
significant weather and/or obstructions to visibility. * = Denotes
station may not report precipitation (e.g., rain,snow,etc.),
thunder or fog.

VAZ042-051-052>054-056-221800-
NORTHERN VIRGINIA

CITY           SKY/WX    TMP DP  RH WIND       PRES   REMARKS
WASH NATIONAL  CLOUDY    91  69  48 E3        30.01F HX  96
DULLES         PTSUNNY   91  67  44 W12G18    30.02F
FORT BELVOIR   FAIR      91  67  46 VRB2      30.01F
QUANTICO       FAIR      87  75  67 S8        30.02F HX  96
FREDERICKSBRG*   N/A     90  69  50 CALM      30.01S HX  95
STAFFORD*      FAIR      90  64  42 W5        30.06F
WARRENTON      FAIR      90  62  39 W3        30.02F
CULPEPER*      FAIR      89  73  59 SW5       30.03F HX  96
MANASSAS*      MOSUNNY   90  66  45 CALM      30.02S
LEESBURG*      FAIR      90  72  55 W7        30.03S HX  96
WINCHESTER     FAIR      90  68  48 W6        30.03F
FRONT ROYAL*   FAIR      88  70  55 CALM      30.03F
LURAY*         FAIR      88  70  55 SW6       30.06S
$$

VAZ048-049-060>072-079>083-221800-
CENTRAL AND SOUTH CENTRAL VIRGINIA

CITY           SKY/WX    TMP DP  RH WIND       PRES   REMARKS
RICHMOND       CLOUDY    88  74  63 SW8       30.03S HX  96
CHESTERFIELD*  FAIR      90  66  45 SW5       30.05S
PETERSBURG*    FAIR      90  75  59 SW7       30.04F HX 100
HANOVER        FAIR      88  70  55 VRB6      30.04S
TAPPAHANNOCK*  FAIR      91  71  51 SW3       30.03S HX  97
QUINTON*       FAIR      87  75  67 S3        30.03S HX  97
CHARLOTTSVILLE FAIR      91  66  43 NW3       30.05S
GORDONSVILLE*  FAIR      89  68  50 CALM      30.04F
ORANGE*          N/A     88  64  45 CALM      30.06F
LOUISA*        FAIR      90  72  55 NW3       30.04S HX  96
BUMPASS*       FAIR      86  73  66 CALM      30.04S
FARMVILLE*     FAIR      90  65  44 SW5       30.04S
CREWE*         FAIR      91  73  56 SW5       30.04F HX  99
FORT PICKETT*  FAIR      87  76  69 SW5       30.05F HX  98
CHASE CITY*    FAIR      87  73  64 CALM      30.07S
CLARKSVILLE*   FAIR      88  73  62 SW9       30.06S HX  96
SOUTH HILL*    FAIR      88  74  63 SW5       30.12S HX  97
LAWRENCEVILLE* PTSUNNY   87  74  66 S6        30.06R HX  95
EMPORIA*       PTSUNNY   88  73  62 S7        30.07S HX  96
$$

VAZ088>098-221800-
SOUTHEAST VIRGINIA

CITY           SKY/WX    TMP DP  RH WIND       PRES   REMARKS
NORFOLK        FAIR      91  70  49 SW10      30.04S HX  96
VIRGINIA BEACH PTSUNNY   94  71  47 SW10      30.04S HX 101
NORFOLK NAVAL  FAIR      91  71  51 SW12      30.05S HX  97
WEST POINT*    FAIR      88  72  59 SW8       30.05R
SALUDA*        FAIR      88  75  65 SW7       30.02S HX  98
NEWPORT NEWS   FAIR      89  74  60 SW13G20   30.04S HX  98
LANGLEY AFB    MOSUNNY   89  74  60 S14       30.03F HX  98
FORT EUSTIS    FAIR      89  75  63 VRB7      30.02F HX  99
WILLIAMSBURG*  FAIR      91  75  59 SW8       30.04S HX 102
HR EXEC AP*    FAIR      90  73  58 SW9       30.07R HX  98
FRANKLIN*      CLOUDY    87  74  64 S6        30.06S HX  96
US460-WAKEFLD  FAIR      88  74  63 SW8       30.04S HX  96
$$

VAZ020-022-025-037-045-221800-
WEST CENTRAL AND SOUTHWEST VIRGINIA

CITY           SKY/WX    TMP DP  RH WIND       PRES   REMARKS
STAUNTON*      FAIR      84  67  55 CALM      30.10F
WAYNESBORO*    FAIR      86  62  43 NE3       30.10S
HOT SPRINGS VA FAIR      77  64  65 N7        30.23F
LYNCHBURG      FAIR      88  67  49 VRB7      30.09S
DANVILLE       FAIR      88  70  55 CALM      30.07S
SOUTH BOSTON*  FAIR      88  74  62 SW6       30.06F HX  97
MARTINSVILLE   FAIR      89  65  44 CALM      30.11S
ROANOKE        FAIR      90  65  43 VRB6      30.11F
BLACKSBURG     FAIR      84  65  52 W5        30.19S
DUBLIN*        FAIR      87  64  46 CALM      30.17F
MARION*        FAIR      84  69  60 W8        30.22F
HILLSVILLE*    FAIR      83  63  50 NW9G17    30.19S
RICHLANDS*     FAIR      82  68  61 NW3       30.21S
WISE*          FAIR      82  52  34 N3        30.23S
ABINGDON*      FAIR      85  68  57 W6        30.18F
$$

MDZ021>025-VAZ099-100-221800-
SOUTHERN MARYLAND AND THE DELMARVA PENINSULA

CITY           SKY/WX    TMP DP  RH WIND       PRES   REMARKS
PATUXENT RIVER PTSUNNY   91  68  46 W8G18     30.00F HX  95
BAY BRIDGE APT PTSUNNY   86  73  66 SW6       30.00S
LEONARDTOWN    MOSUNNY   88  68  51 W7        30.03S
DOVER          PTSUNNY   89  73  59 SW12      29.97S HX  96
GEORGETOWN     MOSUNNY   91  70  49 SW12G22   30.00F HX  96
EASTON         SUNNY     90  77  66 W7        30.04S HX 102
CAMBRIDGE      PTSUNNY   88  72  58 W5        30.00S
SALISBURY      MOSUNNY   88  73  61 SW13      30.01S HX  95
OCEAN CITY     MOSUNNY   84  75  74 S9        30.01S
WALLOPS ISLAND PTSUNNY   86  76  71 S16       30.02S HX  96
ACCOMACK*      FAIR      90  70  51 SW10      30.03R HX  95
$$

NCZ012>017-030>032-221800-
NORTH CENTRAL AND EASTERN NORTH CAROLINA

CITY           SKY/WX    TMP DP  RH WIND       PRES   REMARKS
ROANOKE RAPIDS FAIR      88  73  62 SW12      30.07R HX  96
RALEIGH        PTSUNNY   90  74  59 SW13      30.07F HX  99
ELIZABETH CITY SUNNY     87  71  58 SW9       30.07S
AHOSKIE*       MOSUNNY   86  75  70 CALM      30.06S
EDENTON*       SUNNY     90  70  51 S8        30.07S HX  95
CURRITUCK*     SUNNY     88  70  56 S7        30.07S
KILL DEVIL HLS SUNNY     92  67  44 SW3       30.07S HX  95
MANTEO           N/A     85  73  67 S9        30.08S
CAPE HATTERAS  CLOUDY    87  71  58 S8        30.09F
TARBORO*       FAIR      89  75  62 SW7       30.08R HX  99
GOLDSBORO      MOSUNNY   90  73  58 SW8       30.07S HX  97
WASHINGTON     MOSUNNY   88  71  57 SW8       30.08S
GREENVILLE     MOSUNNY   88  75  66 S10       30.09S HX  97
NEW BERN       SUNNY     90  69  50 SW7       30.10F
WILMINGTON     MOSUNNY   88  69  53 SE7       30.10S
$$

VAZ048-221800-
ELSEWHERE

CITY           SKY/WX    TMP DP  RH WIND       PRES   REMARKS
HARRISBURG PA  CLOUDY    89  71  55 W8        29.94F HX  95
BALTIMORE      PTSUNNY   90  67  46 SW10      29.99F
ANNAPOLIS      MOSUNNY   88  70  55 VRB5      29.99F
ANDREWS AFB    FAIR      89  70  53 SW7       30.01F
PHILADELPHIA   PTSUNNY   90  71  53 SW15G22   29.95F HX  96
GREENSBORO     PTSUNNY   89  70  53 VRB7      30.08F
ROCKY MOUNT    SUNNY     89  73  59 SW9       30.07F HX  97
$$

VAZ100-221800-
MARINE

STATION/POSITION TIME  TEMP    WIND        PRES    WAVE   SWELL
                       AIR SEA DIR/SP/G            HT/PER HT/PER
                 (UTC) (F)     (DEG/KT/KT) (MB)    (FT/S) (FT/S)
BRANDYWINE LGT   1600   81     240/ 13/ 13   N/A
CAPE MAY NJ      1600   80 73  220/  7/ 10 1015.3F
LEWES DE         1600   86 72  240/ 10/ 13 1015.6F
15NM E FENWICK I 1550   77                   N/A
OCEAN-CITY-INLET 1600   78 73  200/  8/ 14 1016.6F
WACHAPREAGUE VA  1600   85 82  210/ 11/ 13 1016.7F
THOMAS POINT MD  1700   85 82  240/  5/  6 1017.2F
GOOSES REEF MD   1600   84 82  260/  6/  6 1017.2F   1/ 3
COVE POINT MD    1600   85     300/  5/  8 1016.7F
SOLOMONS ISLAND  1600   88 83  250/  6/  8   N/A
BISHOPS HEAD MD  1600   83 84  230/ 11/ 13 1016.6F
PINEY POINT MD   1600          350/  6/  7   N/A
POTOMAC MD       1600   85 84  260/  4/  6 1015.4S   1/ 3
CAMBRIDGE MD     1600   85 85  240/  9/ 11 1015.2F
LEWISETTA VA     1600   86 85  250/  6/  7 1016.0S
RAPPAHANNOCK LGT 1600          190/ 14/ 14 1017.5F
STINGRAY PT      1600   85 84  160/ 10/ 12 1017.2F   1
YORK RVR RNG VA  1600   87     240/  9/ 10 1016.7S
YORKTOWN VA      1600   86 83  200/  6/  9 1016.8S
JAMESTOWN VA     1600   86 86  220/  8/ 12   N/A
DOMINION TERM VA 1600   84     220/  9/ 10 1017.3R
KIPTOPEKE VA     1600      82  210/  6/  8   N/A
CHES BAY BRIDGE  1600   85 74  200/  8/  9 1017.1F
CAPE HENRY VA    1600   87     210/  7/ 11   N/A
WILLOUBY STN VA  1600   84     230/  9/ 10   N/A
CAPE HENRY BUOY  1612      80                N/A     2/ 8
1ST LANDING BUOY 1600   83 80  200/  8/  8 1016.9F
CAPE CHARLES BUO 1626      74                N/A     2/ 9
OFFSHORE WE BUOY 1621      83                N/A     3/ 8
64NM E OF VA BCH 1550   81 81  210/  8/ 10 1018.2    3/ 8   3/ 8
DUCK PIER NC     1600   84 76  220/ 10/ 11 1017.7F
44100 DUCK FRF   1605      81                N/A     2/ 8
44056 DUCK FRF   1611      81                N/A     2/ 9
OREGON INLET NC  1600   83 82  180/  7/  8 1018.7F
HATTERAS NC      1600   85 83  170/  4/  6 1018.9F
DIAMOND SHLS NC  1650   83 86  170/  4/  6 1019.3F   3/ 9   3/ 9
CAPE LOOKOUT NC  1700   82     150/  6/  7 1019.0F
$$



USA.gov is the U.S. government's official web portal to all federal, state and local government web resources and services.